STARLINK-35046 (65701 NORAD) Tracking and Keplerian Element Data

This shows tracking and keplerian element data for the satellite.

Feedback or suggestion? Click here.




ElementValue
Catalog65701
NameSTARLINK-35046
Epoch Orbit1500
Epoch Day353.75203479
Epoch Year2025
RAAN357.0524
Inclination53.1614
Eccentricity0.0001386
Argument of Perigee98.9483
Mean Anonmoly261.1675
Mean Motion15.30193916
Decay Rate0.00017508
L11 65701U 25212AB 25353.75203479 .00017508 00000+0 60197-3 0 9992
L22 65701 53.1614 357.0524 0001386 98.9483 261.1675 15.30193916 15008



Live tracking and technical data element details for STARLINK-35046 (NORAD 65701). STARLINK-35046 can be tracked NOW for your location showing map with azimuth and elevation plus other details from your city location.







IsCatalogInMostPopularTable: catalog: 65701, numindb: 4
Update: records affected: 1



GetName: 65701 STARLINK-35046

Hit Count: updated at: Sun, 08 Feb 2026 18:00:45 GMT